Regional Weather Roundup
Issued by NWS Northern Indiana

Home | Current Version | Previous Version | Text Only | Print | Product List | Glossary On
Versions: 1 2 3 4 5 6 7 8 9 10 11 12 13 14 15 16 17 18 19 20 21 22 23 24 25 26 27 28 29 30 31 32 33 34 35 36 37 38 39 40 41 42 43 44 45 46 47 48 49 50
000
ASUS43 KIWX 251410
RWRIWX

KIWX WEATHER ROUNDUP
NATIONAL WEATHER SERVICE NORTHERN INDIANA
1000 AM EDT FRI JUL 25 2014

NOTE: "FAIR" INDICATES FEW OR NO CLOUDS BELOW 12,000 FEET WITH NO
SIGNIFICANT WEATHER AND/OR OBSTRUCTIONS TO VISIBILITY.

* THESE STATIONS ARE NOT UNDER NWS QUALITY CONTROL. THEY ALSO MAY NOT
  REPORT WEATHER SUCH AS PRECIPITATION OR FOG.

INZ001>027-251500-
NORTHERN INDIANA

CITY           SKY/WX    TMP DP  RH WIND       PRES   REMARKS
GARY*          CLOUDY    64  55  72 SW5       30.10F
VALPARAISO     CLOUDY    62  55  77 SW7       30.10F
MICHIGAN CITY* CLOUDY    63  57  82 SW7       30.09F
LAPORTE*       CLOUDY    62  55  78 SW6       30.10F
KNOX*          CLOUDY    62  56  81 SW6       30.10F
SOUTH BEND     CLOUDY    64  54  69 SW6       30.11F
GOSHEN         CLOUDY    68  57  68 SW6       30.12R
MONTICELLO*    PTSUNNY   63  58  82 S3        30.12S
LOGANSPORT*    CLOUDY    63  55  77 SW5       30.13S
ROCHESTER*     CLOUDY    68  59  73 SW5       30.12F
WARSAW*        CLOUDY    68  55  64 CALM      30.12R
ANGOLA*        SUNNY     68  59  73 W5        30.12R
FORT WAYNE     PTSUNNY   67  54  63 SW8       30.12R
HUNTINGTON*    MOSUNNY   68  56  66 SW8       30.12S
PERU/GRISSOM   CLOUDY    65  60  84 SW7       30.12R
MARION*        CLOUDY    65  54  68 SW5       30.14R

$$
INZ028>050-251500-
CENTRAL INDIANA

CITY           SKY/WX    TMP DP  RH WIND       PRES   REMARKS
LAFAYETTE      PTSUNNY   66  56  70 CALM      30.12R
KOKOMO*        CLOUDY    64  57  77 S3        30.14R
MUNCIE*        PTSUNNY   68  51  54 S5        30.13R
INDIANAPOLIS   PTSUNNY   65  54  67 SW6       30.12R

$$
MIZ043>046-050>051-056>058-064>065-071>073-077>080-251500-
SOUTHWEST LOWER MICHIGAN

CITY           SKY/WX    TMP DP  RH WIND       PRES   REMARKS
BATTLE CREEK   CLOUDY    67  55  65 W9        30.10R
BENTON HARBOR  PTSUNNY   63  55  75 S5        30.08F
COLDWATER*     PTSUNNY   67  58  73 SW5       30.12R
HILLSDALE*     PTSUNNY   67  56  67 SW5       30.12R
HOLLAND        PTSUNNY   66  56  70 S7        30.08F
GRAND RAPIDS   CLOUDY    66  53  63 SW12      30.09F
KALAMAZOO      CLOUDY    65  55  70 SW8       30.11R
STURGIS*       PTSUNNY   64  57  77 SW5       30.11S
THREE RIVERS*  FAIR      67  59  76 CALM      30.12S

$$
OHZ001>008-015>018-024>025-251500-
NORTHWEST OHIO

CITY           SKY/WX    TMP DP  RH WIND       PRES   REMARKS
WAUSEON*       FAIR      66  55  68 SW5       30.12R
DEFIANCE       MOSUNNY   69  54  58 SW6       30.12R
FINDLAY        SUNNY     68  53  58 S10       30.10S
TOLEDO EXPRESS MOSUNNY   66  53  63 S6        30.11R
TOLEDO METCALF SUNNY     67  53  61 S5        30.12R
LIMA           SUNNY     67  54  63 S7        30.11S

$$
&&


USA.gov is the U.S. government's official web portal to all federal, state and local government web resources and services.